Lid_Strength_Index
16 16 16 16 15 15 15 16 17 19 18 16 16 14 13 13 13 13 13 12 12 11 11 10 10 9 9 8 9 8 8 8 7 6 5 4 4 3
16 16 16 15 15 15 15 15 16 17 19 16 15 14 14 14 13 13 13 12 12 11 11 11 10 10 9 9 8 9 8 8 7 7 7 6 6 6
16 16 16 16 16 15 15 15 16 16 18 16 15 14 15 14 14 13 13 13 13 12 11 11 10 10 10 9 9 8 8 8 8 7 7 8 7 7
17 17 17 16 16 16 16 16 16 15 16 17 16 15 15 14 14 14 14 13 12 12 11 11 10 10 10 10 10 9 9 8 8 7 7 7 7 6
17 17 17 16 16 16 16 16 15 15 15 16 16 15 14 14 14 13 14 13 13 12 11 11 11 11 10 10 10 10 9 8 9 9 8 8 8 8
15 15 15 15 15 14 14 14 14 15 15 15 15 15 14 14 13 14 14 13 13 13 12 12 11 11 11 10 10 10 11 10 10 10 10 9 10 10
13 13 12 12 11 11 11 11 11 11 12 13 13 14 14 14 14 14 14 14 13 13 12 12 12 11 12 11 11 11 11 11 10 10 10 9 9 10
13 12 11 10 10 9 8 8 8 10 10 10 10 11 12 11 10 11 12 13 16 13 13 13 11 12 11 11 11 11 11 11 10 10 10 10 9 9
12 11 11 10 9 9 8 8 8 7 7 8 9 9 9 9 8 9 9 10 12 11 10 13 11 12 11 11 11 11 11 11 10 10 10 10 9 9
11 10 10 10 9 9 9 9 9 7 6 6 6 7 6 6 6 6 7 7 7 7 6 12 10 11 10 11 10 10 10 10 10 10 10 10 10 10
10 10 10 10 8 7 9 9 7 6 3 3 2 2 2 2 3 4 6 7 9 7 5 7 8 8 8 9 9 10 10 10 10 10 10 10 10 9
10 10 8 8 7 6 6 6 7 5 4 4 3 3 2 2 2 3 4 7 7 8 5 7 7 6 9 7 7 8 9 9 10 10 10 10 10 11
10 10 8 7 6 5 4 4 4 4 3 3 4 3 3 3 3 2 3 4 6 6 5 4 6 6 6 8 6 6 7 8 9 10 10 11 11 11
10 8 8 6 5 4 4 3 2 2 3 4 4 5 4 4 3 3 3 3 3 4 4 3 6 6 7 8 9 6 6 6 6 8 9 10 10 11
8 7 6 5 4 4 3 3 3 4 4 5 5 5 4 3 3 3 2 2 3 3 3 3 4 5 6 8 8 8 8 7 6 7 7 8 9 10
7 7 6 5 4 4 4 4 5 5 5 6 5 5 4 4 4 4 5 4 5 5 4 4 4 5 7 7 7 8 7 9 6 6 6 7 7 8
8 8 8 7 7 6 6 6 6 6 6 5 5 6 5 5 5 4 5 6 7 8 7 6 4 5 6 7 9 8 8 8 7 7 6 7 7 7
7 8 8 8 9 9 8 8 7 6 6 6 6 6 6 7 7 6 6 7 8 8 8 7 7 7 7 7 6 9 8 8 7 7 7 8 9 7
9 10 10 10 10 10 9 9 9 7 6 7 7 7 7 8 8 8 8 8 9 9 8 8 8 9 11 12 8 5 9 8 8 8 8 8 8 8
9 10 11 11 11 11 10 10 9 8 8 8 8 9 9 9 10 10 10 10 10 10 10 9 9 9 11 12 11 9 6 8 8 9 9 7 7 6
10 11 11 11 11 11 11 10 10 10 10 10 10 10 10 10 11 11 11 9 9 10 11 10 9 6 8 9 12 12 9 7 7 9 9 9 10 9
11 11 12 11 11 11 11 12 12 11 11 11 11 11 11 11 12 12 12 12 12 11 11 10 9 9 10 11 13 12 11 9 7 7 7 8 10 12
12 11 11 11 11 12 12 12 12 12 12 12 12 12 11 12 12 12 12 12 12 12 12 12 11 10 11 11 12 13 13 12 11 11 10 7 6 7